[[{"header":{"parameterUnit":"m.s-1","parameterCategory":1,"la1":30.2991,"la2":30.254,"lo1":-89.0895,"lo2":-89.0444,"dy":0.0017,"dx":0.0017,"nx":28,"ny":28,"refTime":"2024-10-15T03:00:00:Z","depth":0,"parameterNumber":2,"parameterNumberName":"U-component_of_WINDS"},"data":[0,0,0,0,0,0,0,0,0,0,0,0,0,0,0,0,0,0,0,0,0,0,0,0,0,0,0,0,0,0,0,0,0,0,0,0,0,0,0,0,0,0,0,0,0,0,0,0,0,0,0,0,0,0,0,0,0,0,0.6642,0.6643,0,0.6789,0.679,0.6792,0.6772,0.677,0.6767,0.6765,0.6925,0.6932,0.6938,0,0,0,0,0,0,0,0,0,0,0,0,0,0.6353,0.6358,0.6641,0.6643,0.6645,0.6788,0.679,0.6792,0.6773,0.677,0.6767,0.6764,0.6923,0.6931,0.6939,0,0,0,0,0,0,0,0,0,0,0,0,0,0.6487,0.636,0.6641,0.6652,0.6655,0.6788,0.679,0.6793,0.6773,0.677,0.6766,0.6763,0.6921,0.693,0.694,0.7074,0,0,0.697,0.6974,0,0,0,0,0,0,0,0,0.648,0.6498,0.6649,0.6652,0.6655,0.6758,0.6747,0.6887,0.6774,0.6729,0.6765,0.6761,0.6873,0.6887,0.6923,0.7081,0.7088,0.6971,0.6977,0.6981,0.6984,0,0,0,0,0,0,0,0.647,0.6491,0.67,0.6651,0.6655,0.6653,0.6668,0.6774,0.682,0.6732,0.6731,0.6748,0.6874,0.6913,0.6926,0.7091,0.697,0.6979,0.6985,0.6989,0.7369,0.7373,0,0,0,0,0,0,0.6457,0.6484,0.6695,0.6704,0.6556,0.6661,0.6678,0.6729,0.6819,0.6829,0.6751,0.6747,0.6898,0.6915,0.6932,0.7096,0.6981,0.699,0.6996,0.7365,0.737,0.7375,0,0,0,0,0,0,0.6451,0.6476,0.6689,0.6594,0.6621,0.667,0.6727,0.6734,0.6772,0.6833,0.6842,0.6782,0.6896,0.6918,0.7038,0.7101,0.6994,0.7003,0.736,0.7367,0.7372,0.7424,0,0,0,0,0,0,0.6442,0.6474,0.6523,0.6595,0.6626,0.6791,0.6731,0.6739,0.6788,0.6784,0.6864,0.6874,0.6895,0.7024,0.7048,0.7113,0.7011,0.7355,0.7363,0.737,0.7417,0.7432,0.7444,0,0,0,0,0,0.6432,0.6533,0.6525,0.6551,0.6688,0.6794,0.6812,0.6831,0.6793,0.6845,0.6884,0.6872,0.709,0.7036,0.7064,0.7132,0.7351,0.7361,0.737,0.7411,0.7429,0.7444,0,0,0,0,0,0,0.647,0.6543,0.6535,0.6662,0.6721,0.679,0.6856,0.6849,0.6923,0.6916,0.694,0.6958,0.708,0.7118,0.7057,0.7268,0.7216,0.7231,0.7238,0.7255,0.7268,0.7257,0.7019,0,0,0,0,0,0.6493,0.657,0.6631,0.6737,0.6767,0.6806,0.6853,0.6863,0.6927,0.6953,0.7001,0.7066,0.715,0.7205,0.7285,0.7423,0.7441,0.7483,0.7497,0.7507,0.7521,0.7598,0.7618,0.7406,0.7406,0.7405,0,0,0.6541,0.6591,0.6638,0.6746,0.6793,0.6876,0.6828,0.6917,0.6979,0.6968,0.7083,0.7121,0.7196,0.7326,0.7386,0.7362,0.7584,0.7519,0.7527,0.7535,0.761,0.763,0.7648,0.7412,0.7411,0.741,0,0,0.6672,0.6716,0.681,0.6858,0.6929,0.6955,0.6977,0.7048,0.7071,0.7187,0.7181,0.7257,0.74,0.7454,0.75,0.7652,0.7645,0.7678,0.7748,0.7824,0.784,0.7855,0.7911,0.7931,0.7691,0.7691,0.7691,0,0.6724,0.6845,0.686,0.6949,0.6998,0.6988,0.7085,0.7132,0.7228,0.7263,0.7234,0.7413,0.7463,0.7606,0.7643,0.7681,0.771,0.7669,0.7836,0.7851,0.7866,0.7919,0.794,0.7695,0.7694,0.7694,0.7694,0,0.6906,0.699,0.7058,0.7147,0.7203,0.7297,0.7329,0.7384,0.7389,0.7419,0.7539,0.7598,0.7691,0.7725,0.7732,0.7871,0.7853,0.783,0.7779,0.7889,0.794,0.7961,0.77,0.7699,0.7698,0.7697,0,0,0.7065,0.716,0.7185,0.7226,0.7305,0.7372,0.7466,0.7553,0.7602,0.7669,0.775,0.7871,0.785,0.7903,0.7916,0.7982,0.81,0.7951,0.7953,0.7977,0.8259,0.8277,0.83,0.8095,0.8099,0.8102,0.8253,0,0.7204,0.7366,0.7382,0.7529,0.7609,0.7601,0.7684,0.7743,0.7773,0.7848,0.7883,0.7969,0.7934,0.7966,0.8031,0.8072,0.8157,0.8061,0.8174,0.8178,0.8156,0.8326,0.8345,0.8484,0.8273,0.8276,0.8279,0,0.7387,0.7456,0.761,0.7678,0.7712,0.7785,0.7867,0.7938,0.8006,0.8024,0.8082,0.8087,0.8188,0.8131,0.8272,0.8206,0.8254,0.8281,0.8287,0.83,0.8235,0.8344,0.8529,0.855,0.831,0.8307,0.8305,0,0.7488,0.762,0.7729,0.7765,0.7847,0.7899,0.7936,0.8,0.8052,0.8126,0.816,0.8245,0.8292,0.836,0.8389,0.8345,0.8529,0.8474,0.8549,0.8549,0.8589,0.8586,0.8785,0.8618,0.8617,0.8617,0.8616,0,0.7642,0.7737,0.7776,0.7843,0.795,0.797,0.8077,0.8112,0.817,0.8246,0.8246,0.8319,0.8352,0.8431,0.8455,0.8569,0.859,0.861,0.8615,0.861,0.8608,0.8642,0.8634,0.8623,0.8621,0.862,0.8619,0,0.7774,0.7803,0.7922,0.7989,0.8009,0.8085,0.8145,0.8212,0.8241,0.8339,0.8363,0.8411,0.8504,0.8539,0.8653,0.8669,0.8802,0.8799,0.8778,0.8779,0.8852,0.8845,0.9081,0.9114,0.8924,0.8926,0.8927,0,0.787,0.7942,0.8017,0.8067,0.8105,0.8186,0.8238,0.8261,0.8317,0.84,0.8458,0.855,0.8624,0.8774,0.8822,0.891,0.891,0.8986,0.8923,0.8917,0.8913,0.8908,0.8917,0.8998,0.9,0.9002,0.9003,0,0.8038,0.8049,0.8123,0.8203,0.8265,0.8329,0.8392,0.8434,0.8468,0.8531,0.8624,0.8682,0.8797,0.889,0.898,0.9023,0.902,0.9022,0.9045,0.9041,0.9026,0.9036,0.8811,0.9017,0.9016,0.9015,0.9014,0.9013,0.8156,0.822,0.8283,0.8366,0.8415,0.8474,0.854,0.8578,0.8655,0.8749,0.8759,0.886,0.8929,0.905,0.9096,0.9178,0.9158,0.919,0.9198,0.9206,0.9211,0.9012,0.9195,0.9194,0.9194,0.9194,0.9194,0,0.8325,0.8364,0.844,0.8527,0.8594,0.8582,0.8651,0.8709,0.8796,0.8859,0.8932,0.9041,0.9131,0.9185,0.9276,0.9332,0.9333,0.9355,0.9352,0.9362,0.9224,0.9196,0.9352,0.9352,0.9352,0.9352,0.9352,0.9352,0.842,0.8529,0.8548,0.8682,0.8722,0.8819,0.886,0.8916,0.8966,0.9086,0.9159,0.9193,0.9254,0.935,0.9433,0.9447,0.9481,0.9505,0.9518,0.9388,0.9371,0.9356,0.933,0.9512,0.9512,0.965,0.9651,0.9652]},{"header":{"parameterUnit":"m.s-1","parameterCategory":1,"la1":30.2991,"la2":30.254,"lo1":-89.0895,"lo2":-89.0444,"dy":0.0017,"dx":0.0017,"nx":28,"ny":28,"refTime":"2024-10-15T03:00:00:Z","depth":0,"parameterNumber":3,"parameterNumberName":"V-component_of_WINDS"},"data":[0,0,0,0,0,0,0,0,0,0,0,0,0,0,0,0,0,0,0,0,0,0,0,0,0,0,0,0,0,0,0,0,0,0,0,0,0,0,0,0,0,0,0,0,0,0,0,0,0,0,0,0,0,0,0,0,0,0,0.4645,0.4645,0,0.4679,0.468,0.468,0.4597,0.4595,0.4592,0.459,0.4626,0.463,0.4633,0,0,0,0,0,0,0,0,0,0,0,0,0,0.4508,0.4511,0.4645,0.4645,0.4646,0.4679,0.468,0.468,0.4598,0.4595,0.4592,0.4589,0.4625,0.4629,0.4633,0,0,0,0,0,0,0,0,0,0,0,0,0,0.4558,0.4512,0.4645,0.4609,0.4606,0.4679,0.468,0.468,0.4599,0.4595,0.4591,0.4587,0.4624,0.4629,0.4634,0.4744,0,0,0.465,0.4652,0,0,0,0,0,0,0,0,0.4555,0.4563,0.4613,0.4611,0.4608,0.463,0.4645,0.4702,0.46,0.4601,0.459,0.4585,0.4631,0.4635,0.465,0.4746,0.4748,0.465,0.4653,0.4656,0.4657,0,0,0,0,0,0,0,0.4552,0.4561,0.4658,0.4614,0.4611,0.4591,0.4594,0.4655,0.4638,0.4601,0.4595,0.46,0.4629,0.4646,0.4651,0.4748,0.465,0.4655,0.4658,0.466,0.4936,0.494,0,0,0,0,0,0,0.4553,0.4559,0.4657,0.4659,0.4571,0.4597,0.4599,0.4627,0.4637,0.4635,0.4603,0.4596,0.4639,0.4645,0.4652,0.4782,0.4655,0.466,0.4663,0.4932,0.4937,0.4942,0,0,0,0,0,0,0.455,0.4562,0.4656,0.4607,0.4618,0.4603,0.4635,0.463,0.4647,0.4639,0.4635,0.4624,0.4636,0.4644,0.4722,0.4782,0.4663,0.4667,0.4927,0.4933,0.4939,0.5043,0,0,0,0,0,0,0.4547,0.4562,0.4604,0.4609,0.4621,0.4726,0.4638,0.4633,0.4655,0.4646,0.4657,0.4655,0.4634,0.4715,0.4727,0.4787,0.4671,0.4921,0.493,0.4937,0.5034,0.5052,0.5067,0,0,0,0,0,0.4542,0.4632,0.4606,0.4619,0.4672,0.4729,0.4736,0.4709,0.4661,0.4703,0.4697,0.4655,0.4773,0.4723,0.4736,0.4799,0.4917,0.4927,0.4937,0.5027,0.5048,0.5067,0,0,0,0,0,0,0.4634,0.4632,0.4603,0.4697,0.4714,0.4715,0.4767,0.4733,0.4764,0.4754,0.4719,0.4723,0.4807,0.481,0.4755,0.4906,0.4837,0.485,0.4901,0.4922,0.4938,0.4936,0.4676,0,0,0,0,0,0.4666,0.4712,0.4707,0.479,0.48,0.4783,0.4806,0.4784,0.48,0.4807,0.4807,0.4825,0.4866,0.4894,0.4931,0.5034,0.5035,0.5083,0.5099,0.5113,0.5125,0.518,0.5201,0.4973,0.4973,0.4973,0,0,0.4731,0.4735,0.4766,0.4809,0.4819,0.4868,0.4789,0.4844,0.488,0.4815,0.4888,0.489,0.4907,0.4997,0.5037,0.5003,0.5188,0.5125,0.5136,0.5141,0.5192,0.5213,0.5233,0.498,0.4978,0.4977,0,0,0.4875,0.4883,0.4953,0.4965,0.4981,0.4969,0.4986,0.4992,0.499,0.5063,0.5015,0.5057,0.5128,0.5143,0.5159,0.5308,0.527,0.5321,0.5409,0.5462,0.548,0.5496,0.555,0.557,0.5332,0.5333,0.5333,0,0.4954,0.5026,0.4994,0.5052,0.5072,0.5015,0.5086,0.5099,0.5127,0.5143,0.5103,0.5191,0.5199,0.5292,0.5328,0.5343,0.5362,0.532,0.548,0.5496,0.551,0.5561,0.5581,0.5339,0.5338,0.5338,0.5337,0,0.5123,0.5173,0.5228,0.5256,0.5282,0.5347,0.5325,0.5355,0.533,0.5322,0.5397,0.5404,0.5441,0.5461,0.5438,0.5552,0.553,0.5486,0.5416,0.5539,0.5586,0.5605,0.5348,0.5346,0.5344,0.5342,0,0,0.5327,0.5336,0.5357,0.5369,0.5382,0.5421,0.5483,0.5519,0.5546,0.5567,0.5618,0.568,0.5639,0.5658,0.5635,0.5682,0.58,0.5632,0.5632,0.5664,0.5927,0.5961,0.5984,0.5775,0.5778,0.5781,0.5926,0,0.547,0.5576,0.5549,0.5655,0.5701,0.5646,0.57,0.5715,0.5708,0.5747,0.574,0.5784,0.5727,0.5738,0.5782,0.5777,0.5853,0.5766,0.5823,0.5825,0.5822,0.6008,0.6044,0.6181,0.5944,0.5947,0.5949,0,0.5651,0.5679,0.5789,0.5795,0.5813,0.5862,0.5893,0.593,0.5945,0.5938,0.5959,0.5926,0.5987,0.5916,0.6,0.5942,0.5963,0.5964,0.5969,0.5974,0.5896,0.602,0.6223,0.6244,0.5978,0.5975,0.5973,0,0.579,0.5855,0.5929,0.5941,0.595,0.5985,0.5991,0.6001,0.6025,0.6052,0.6067,0.6101,0.612,0.6147,0.6125,0.6075,0.6213,0.614,0.6209,0.621,0.6242,0.624,0.6453,0.6254,0.6253,0.6253,0.6252,0,0.5954,0.6024,0.5992,0.6038,0.6115,0.6082,0.6159,0.6158,0.6168,0.6213,0.6168,0.6211,0.6178,0.6219,0.6202,0.6274,0.6283,0.6279,0.6274,0.6284,0.6284,0.6298,0.6289,0.6258,0.6257,0.6256,0.6255,0,0.6123,0.6104,0.6182,0.6183,0.6185,0.6242,0.6243,0.6285,0.6275,0.6333,0.6344,0.6329,0.6374,0.6354,0.6402,0.639,0.6484,0.6465,0.6479,0.6475,0.6545,0.6539,0.6775,0.6805,0.6586,0.6588,0.659,0,0.6229,0.6281,0.6288,0.6314,0.6323,0.6366,0.639,0.636,0.6386,0.6407,0.6447,0.6488,0.652,0.6595,0.6588,0.6624,0.6607,0.6687,0.6612,0.6621,0.661,0.6607,0.6613,0.6703,0.6705,0.6707,0.6709,0,0.6419,0.6407,0.6442,0.6476,0.6505,0.6529,0.655,0.6574,0.6545,0.6577,0.6623,0.6647,0.6695,0.6737,0.6769,0.6774,0.6738,0.6732,0.675,0.6762,0.6768,0.6767,0.6521,0.6727,0.6726,0.6724,0.6723,0.6722,0.656,0.6604,0.6616,0.6657,0.6669,0.6689,0.673,0.6724,0.6762,0.6799,0.6778,0.6832,0.6845,0.6884,0.6894,0.6935,0.6904,0.693,0.6937,0.6944,0.6954,0.676,0.6941,0.694,0.694,0.6939,0.6939,0,0.6749,0.6753,0.6791,0.6821,0.6854,0.6815,0.6836,0.6866,0.6914,0.6929,0.6961,0.7013,0.7053,0.7049,0.7086,0.712,0.7104,0.7131,0.7129,0.7131,0.6979,0.696,0.7143,0.7143,0.7143,0.7143,0.7143,0.7143,0.6851,0.6924,0.6913,0.6992,0.6995,0.7047,0.7063,0.7081,0.7093,0.7154,0.7187,0.7183,0.7191,0.7228,0.7263,0.7261,0.7277,0.7311,0.7302,0.7161,0.7141,0.7122,0.7104,0.7314,0.7314,0.745,0.7452,0.7453]}]]